Simultaneous Nadir Overpasses (SNOs) Predictions

Prediction of SNOs between FY3D and NOAA-19 Satellite Orbit:

Table of predicted SNOs for the next 14.0 days since TLE Epoch: 7/24/2021
Index Date (FY3D) Time (FY3D) Lat,Lon (FY3D) SZA (FY3D ) Date (NOAA-19) Time (NOAA-19) Lat,Lon (NOAA-19) SZA (NOAA-19 ) Distance(km) Time Diff (sec)
1 07/30/2021 21:17:44 -78.34, 17.13 118.82 07/30/2021 21:16:38 -78.36, 17.11 118.77 2.30 66
2 07/30/2021 22:08:29 78.37,-175.72 61.24 07/30/2021 22:07:32 78.37,-175.60 61.24 2.66 57
3 07/30/2021 22:59:13 -78.35, -8.26 118.80 07/30/2021 22:58:38 -78.38, -8.32 118.75 3.39 35
4 07/30/2021 23:49:58 78.37, 158.90 61.26 07/30/2021 23:49:32 78.38, 158.97 61.26 1.58 26
5 07/31/2021 00:40:43 -78.39, -33.87 118.72 07/31/2021 00:40:38 -78.39, -33.75 118.73 2.66 5
6 07/31/2021 01:31:27 78.38, 133.51 61.28 07/31/2021 01:31:32 78.39, 133.54 61.28 1.24 5
7 07/31/2021 02:22:12 -78.39, -59.25 118.70 07/31/2021 02:22:38 -78.40, -59.18 118.71 1.67 26
8 07/31/2021 03:12:56 78.38, 108.13 61.30 07/31/2021 03:13:32 78.40, 108.10 61.30 2.05 36
9 07/31/2021 04:03:41 -78.39, -84.64 118.68 07/31/2021 04:04:38 -78.41, -84.61 118.69 1.47 57
10 07/31/2021 04:54:25 78.38, 82.74 61.32 07/31/2021 04:55:32 78.41, 82.67 61.32 3.22 67



Historial Predications of SNOs between FY3D and NOAA-19
